Powrót do katalogu

STARLINK-37940

AktywnyŁącznośćSSO
NORAD 69690·PAYLOAD·🇺🇸 United States

Wystrzelony Jun 25, 2026 z Vandenberg Space Force Base

Loading…

Następne Przeloty (najbliższe 24 godziny)

TLE

ŚwieżeSource: CelesTrak SupGP

Epoka: Sep 15, 2026, 03:56 UTC

1 69690C 26145P   26258.16437500 -.00052370  00000+0 -16256-2 0  2585
2 69690  97.2844 104.9238 0001886  91.6714  16.4907 15.33467718    17

Śledź STARLINK-37940 w czasie rzeczywistym z AllMySat

Download on the App Store